EW1714 Weather Reports


Display with metric or nautical units.
time (UTC)temp
F
wind
direction
speed
MPH
gust
MPH
rain 1hr
in
rain 24hr
in
rain mn
in
humidity
%
barometer
mb
20200223111542 22 104 0.0 0.0 0.00 0.00 0.00 89 1021.1
20200223104604 22 104 0.0 0.0 0.00 0.00 0.00 89 1021.0
20200223103102 22 104 0.0 0.0 0.00 0.00 0.00 89 1021.0
20200223101527 22 104 0.0 0.0 0.00 0.00 0.00 89 1020.8
20200223094623 23 104 0.0 0.0 0.00 0.00 0.00 88 1020.6
20200223093042 23 104 0.0 0.0 0.00 0.00 0.00 88 1020.6
20200223091525 23 104 0.0 0.0 0.00 0.00 0.00 88 1020.5
20200223084536 24 104 0.0 0.0 0.00 0.00 0.00 87 1020.3
20200223083039 24 104 0.0 0.0 0.00 0.00 0.00 87 1020.2
20200223081531 24 104 0.0 0.0 0.00 0.00 0.00 87 1020.1
20200223074514 24 104 0.0 0.0 0.00 0.00 0.00 87 1020.1
20200223073021 24 104 0.0 0.0 0.00 0.00 0.00 86 1020.3
20200223071521 25 104 0.0 0.0 0.00 0.00 0.00 85 1020.3
20200223064521 25 104 0.0 0.0 0.00 0.00 0.00 85 1020.4
20200223063013 25 104 0.0 0.0 0.00 0.00 0.00 84 1020.4
20200223061534 26 104 0.0 0.0 0.00 0.00 0.00 84 1020.5
20200223054600 26 104 0.0 0.0 0.00 0.00 0.00 84 1020.5
20200223053020 26 104 0.0 0.0 0.00 0.00 0.00 83 1020.5
20200223051545 26 140 0.0 0.0 0.00 0.00 0.00 83 1020.5
20200223044511 27 140 0.0 0.0 0.00 0.00 0.00 81 1020.5
20200223043036 28 140 0.0 0.0 0.00 0.00 0.00 79 1020.6
20200223041513 28 140 0.0 0.0 0.00 0.00 0.00 78 1020.4
20200223034525 29 140 0.0 0.0 0.00 0.00 0.00 76 1020.6
20200223033012 29 140 0.0 0.0 0.00 0.00 0.00 75 1020.5
20200223031517 29 140 0.0 0.0 0.00 0.00 0.00 73 1020.6
20200223024511 30 140 0.0 0.0 0.00 0.00 0.00 73 1020.8
20200223023042 31 140 0.0 0.0 0.00 0.00 0.00 72 1020.8
20200223021521 31 140 0.0 0.0 0.00 0.00 0.00 71 1020.7
20200223014511 32 219 0.0 0.0 0.00 0.00 0.00 67 1020.6
20200223013020 31 219 0.0 0.0 0.00 0.00 0.00 67 1020.6
20200223011607 31 219 0.0 0.0 0.00 0.00 0.00 69 1020.6
20200223004512 32 219 0.0 0.0 0.00 0.00 0.00 65 1020.7
20200223003010 33 219 0.0 0.0 0.00 0.00 0.00 63 1020.6
20200223001527 34 219 0.0 0.0 0.00 0.00 0.00 62 1020.4
20200222234508 35 245 0.0 0.0 0.00 0.00 0.00 59 1020.1
20200222233013 36 300 0.0 0.0 0.00 0.00 0.00 56 1019.9
20200222231511 38 300 0.0 0.0 0.00 0.00 0.00 55 1019.7
20200222224517 40 203 0.0 1.0 0.00 0.00 0.00 48 1019.2
20200222223008 40 180 0.0 2.0 0.00 0.00 0.00 47 1019.1
20200222221522 41 198 0.0 1.0 0.00 0.00 0.00 46 1019.0
20200222214507 43 188 0.0 5.0 0.00 0.00 0.00 44 1018.6
20200222213002 44 161 0.0 3.0 0.00 0.00 0.00 41 1018.5
20200222211502 46 9 0.0 6.0 0.00 0.00 0.00 40 1018.3
20200222204518 47 355 0.0 5.0 0.00 0.00 0.00 39 1018.3
20200222203007 47 236 0.0 9.0 0.00 0.00 0.00 38 1018.4
20200222201514 47 233 1.0 7.0 0.00 0.00 0.00 38 1018.3
20200222194509 46 219 1.0 10.0 0.00 0.00 0.00 38 1018.0
20200222193003 47 175 1.0 4.0 0.00 0.00 0.00 37 1018.0
20200222191501 49 171 3.0 10.0 0.00 0.00 0.00 35 1018.0
20200222184722 51 309 0.0 4.0 0.00 0.00 0.00 34 1018.2
20200222183130 49 207 0.0 5.0 0.00 0.00 0.00 35 1018.3
20200222181632 49 134 3.0 10.0 0.00 0.00 0.00 34 1018.4
20200222174737 47 110 0.0 6.0 0.00 0.00 0.00 37 1019.0
20200222173123 48 262 0.0 8.0 0.00 0.00 0.00 35 1019.3
20200222171637 47 261 1.0 6.0 0.00 0.00 0.00 38 1019.5
20200222164538 46 212 0.0 6.0 0.00 0.00 0.00 39 1020.1
20200222163115 45 13 1.0 10.0 0.00 0.00 0.00 38 1020.4
20200222161551 45 309 0.0 8.0 0.00 0.00 0.00 38 1020.5
20200222154630 44 162 0.0 5.0 0.00 0.00 0.00 39 1021.0
20200222153046 43 232 0.0 7.0 0.00 0.00 0.00 40 1021.1
20200222151527 41 179 1.0 9.0 0.00 0.00 0.00 40 1021.3
20200222144526 35 195 1.0 4.0 0.00 0.00 0.00 47 1021.6
20200222143019 31 161 0.0 2.0 0.00 0.00 0.00 49 1021.8
20200222141513 30 244 0.0 6.0 0.00 0.00 0.00 49 1021.8
20200222134510 28 148 0.0 7.0 0.00 0.00 0.00 52 1021.9
20200222133020 26 171 0.0 6.0 0.00 0.00 0.00 56 1022.1
20200222131614 23 178 0.0 3.0 0.00 0.00 0.00 63 1022.3
20200222131500 23 178 0.0 5.0 0.00 0.00 0.00 63 1022.3
20200222124559 18 178 0.0 0.0 0.00 0.00 0.00 80 1022.1
20200222123117 0 0.0 0.0 0.00 0.00 0.00 1022.0
20200222121554 0 0.0 0.0 0.00 0.00 0.00 1022.0
20200222114606 0 0.0 0.0 0.00 0.00 0.00 1021.6
20200222113349 0 0.0 0.0 0.00 0.00 0.00 1021.5